Home   Weather   Funchal   Past weeks

Flag for Portugal Past Weather in Funchal, Madeira, Portugal — Yesterday and Last 2 Weeks

Now
63 °F

Passing clouds.


Feels Like: 63 °F
Forecast: 63 / 68 °F
Wind: 2 mph from North

Location: Aeroporto Da Madeira

Current Time: Apr 30, 2017 at 11:43:58 pm

Latest Report: Apr 30, 2017 at 11:00 pm


Visibility: N/A

Pressure: 30.18 "Hg

Humidity: 77%

Dew Point: 55 °F

Location of FunchalLocation

Past Weather in Funchal — Graph

°F

Funchal Temperature Yesterday

Maximum temperature yesterday: 64 °F (at 3:00 pm)
Minimum temperature yesterday: 59 °F (at 5:00 am)
Average temperature yesterday: 62 °F

High & Low Weather Summary for the Past Weeks

 TemperatureHumidityPressure
High75 °F (Apr 17, 3:30 pm)94% (Apr 24, 8:00 am)30.21 "Hg (Apr 24, 8:00 am)
Low57 °F (Apr 30, 7:30 am)38% (Apr 18, 4:00 am)29.68 "Hg (Apr 27, 7:00 am)
Average65 °F75%29.96 "Hg
* Reported Apr 15 10:00 pm — Apr 30 10:30 pm, Funchal, Weather by CustomWeather, © 2017

Note: Actual official high and low records may vary slightly from our data, if they occured in-between our weather recording intervals... More about our weather records

Advertising

Funchal Weather History for the Previous 24 Hours

Scroll right to see more
 ConditionsComfort  
Time TempWeatherWind HumidityBarometerVisibility
10:30 pm
Sun, Apr 30
64 °FPassing clouds.2 mph73%30.18 "HgN/A
10:00 pm64 °FPassing clouds.9 mph73%30.18 "HgN/A
9:30 pm64 °FPassing clouds.5 mph73%30.18 "HgN/A
9:00 pm64 °FPassing clouds.2 mph78%30.15 "HgN/A
8:30 pm66 °FScattered clouds.No wind68%30.15 "HgN/A
8:00 pm66 °FPartly sunny.2 mph73%30.15 "HgN/A
7:30 pm66 °FScattered clouds.3 mph73%30.15 "HgN/A
7:00 pm66 °FScattered clouds.3 mph73%30.15 "HgN/A
6:30 pm66 °FScattered clouds.5 mph68%30.18 "HgN/A
6:00 pm66 °FScattered clouds.5 mph68%30.15 "HgN/A
5:30 pm68 °FScattered clouds.5 mph64%30.15 "HgN/A
5:00 pm68 °FPartly sunny.6 mph64%30.18 "HgN/A
4:30 pm66 °FPartly sunny.6 mph68%30.18 "HgN/A
4:00 pm66 °FScattered clouds.7 mph68%30.18 "HgN/A
3:30 pm68 °FBroken clouds.6 mph64%30.18 "HgN/A
3:00 pm68 °FBroken clouds.7 mph64%30.18 "HgN/A
2:30 pm68 °FBroken clouds.9 mph60%30.18 "HgN/A
2:00 pm68 °FBroken clouds.12 mph64%30.18 "HgN/A
1:30 pm68 °FBroken clouds.10 mph64%30.18 "HgN/A
1:00 pm68 °FBroken clouds.10 mph64%30.18 "HgN/A
12:30 pm66 °FBroken clouds.9 mph64%30.21 "HgN/A
12:00 pm68 °FBroken clouds.8 mph64%30.18 "HgN/A
11:30 am64 °FBroken clouds.5 mph68%30.18 "HgN/A
11:00 am64 °FScattered clouds.6 mph68%30.18 "HgN/A
10:30 am64 °FScattered clouds.7 mph68%30.18 "HgN/A
10:00 am64 °FScattered clouds.3 mph64%30.18 "HgN/A
9:30 am64 °FScattered clouds.1 mph60%30.18 "HgN/A
9:00 am66 °FPassing clouds.1 mph56%30.15 "HgN/A
8:30 am63 °FPassing clouds.No wind59%30.15 "HgN/A
8:00 am59 °FPassing clouds.5 mph68%30.15 "HgN/A
7:30 am57 °FPassing clouds.5 mph63%30.15 "HgN/A
7:00 am59 °FPassing clouds.6 mph55%30.15 "HgN/A
6:30 am61 °FPassing clouds.6 mph55%30.15 "HgN/A
6:00 am59 °FPassing clouds.6 mph63%30.12 "HgN/A
5:30 am61 °FPassing clouds.10 mph63%30.12 "HgN/A
5:00 am61 °FPassing clouds.9 mph63%30.12 "HgN/A
4:30 am61 °FPassing clouds.13 mph63%30.12 "HgN/A
4:00 am61 °FPassing clouds.12 mph63%30.12 "HgN/A
3:30 am61 °FPassing clouds.13 mph63%30.12 "HgN/A
3:00 am61 °FPassing clouds.12 mph68%30.12 "HgN/A
2:30 am61 °FPassing clouds.15 mph63%30.12 "HgN/A
2:00 am61 °FPassing clouds.14 mph68%30.12 "HgN/A
1:30 am61 °FPassing clouds.16 mph63%30.12 "HgN/A
1:00 am61 °FPassing clouds.17 mph63%30.12 "HgN/A
12:30 am61 °FPassing clouds.15 mph68%30.12 "HgN/A
12:00 am61 °FPassing clouds.16 mph68%30.12 "HgN/A
11:30 pm
Sat, Apr 29
61 °FPassing clouds.14 mph63%30.12 "HgN/A
11:00 pm61 °FPassing clouds.15 mph63%30.12 "HgN/A
Weather by CustomWeather, © 2017

See weather overviewHow to use our weather pages